Location: Oshawa
(43.9000°N, 78.8670°W)
Time: 01:23:34
(UTC-04:00)

SPOT 5 - Visible Passes

Search period start: 25 May 2015 00:00
Search period end: 04 June 2015 00:00
Orbit: 821 x 823 km, 98.5° (Epoch: 24 May)

Date Brightness Start Highest point End Pass type
(mag) Time Alt. Az. Time Alt. Az. Time Alt. Az.
25 May 3.3 22:01:48 10° S 22:07:09 78° WSW 22:12:34 10° NNW visible
26 May 3.2 21:41:44 10° SSE 21:47:03 72° ENE 21:52:26 10° N visible
26 May 5.5 23:24:37 10° SW 23:27:52 16° W 23:30:54 10° NW visible
27 May 3.6 21:21:53 10° SE 21:27:00 49° ENE 21:32:11 10° N visible
27 May 5.0 23:03:11 10° SW 23:07:29 23° W 23:11:40 10° NW visible
28 May 4.5 22:42:16 10° SSW 22:47:09 35° W 22:52:01 10° NNW visible
29 May 3.8 22:21:42 10° S 22:26:55 52° W 22:32:10 10° NNW visible
30 May 3.3 22:01:23 10° S 22:06:45 78° WSW 22:12:09 10° NNW visible
31 May 3.2 21:41:19 10° SSE 21:46:38 72° ENE 21:52:01 10° N visible
31 May 5.5 23:24:12 10° SW 23:27:29 16° W 23:30:29 10° NW visible
01 Jun 3.6 21:21:29 10° SE 21:26:36 49° ENE 21:31:46 10° N visible
01 Jun 5.0 23:02:46 10° SW 23:07:04 23° W 23:11:15 10° NW visible
02 Jun 4.5 22:41:52 10° SSW 22:46:45 35° W 22:51:36 10° NNW visible
03 Jun 3.8 22:21:18 10° S 22:26:30 52° W 22:31:45 10° NNW visible
